GW1765 Weather Reports


time (UTC)temp
C
wind
direction
speed
KPH
gust
KPH
rain 1hr
cm
rain 24hr
cm
rain mn
cm
humidity
%
barometer
mb
20260510205017 16 174 9.7 16.1 0.00 0.00 0.00 60 1017.4
20260510204115 15 148 9.7 24.1 0.00 0.00 0.00 59 1017.2
20260510203152 13 103 8.0 16.1 0.00 0.00 0.00 66 1017.1
20260510202107 12 108 12.9 24.1 0.00 0.00 0.00 77 1016.7
20260510201125 10 135 14.5 20.9 0.00 0.00 0.00 80 1016.2
20260510195118 10 132 20.9 27.4 0.00 0.00 0.00 83 1015.7
20260510194054 9 115 20.9 27.4 0.00 0.00 0.00 85 1015.5
20260510193050 9 135 20.9 29.0 0.00 0.00 0.00 86 1015.4
20260510192127 9 108 22.5 32.2 0.00 0.00 0.00 87 1015.2
20260510191042 9 135 24.1 38.6 0.00 0.00 0.00 87 1015.1
20260510190039 9 135 25.7 37.0 0.00 0.00 0.00 88 1014.9
20260510185035 9 135 25.7 33.8 0.00 0.00 0.00 88 1014.7
20260510184032 9 131 25.7 33.8 0.00 0.00 0.00 89 1014.6
20260510183029 9 144 27.4 35.4 0.00 0.00 0.00 89 1014.3
20260510182047 10 130 25.7 32.2 0.00 0.00 0.00 90 1014.0
20260510181024 9 135 25.7 35.4 0.00 0.00 0.00 90 1013.8
20260510180020 9 135 24.1 41.8 0.00 0.00 0.00 90 1013.6
20260510175117 9 135 24.1 30.6 0.00 0.00 0.00 91 1013.4
20260510174114 10 119 24.1 33.8 0.00 0.00 0.00 91 1013.3
20260510173108 10 133 22.5 32.2 0.00 0.00 0.00 91 1013.1
20260510172127 10 135 20.9 29.0 0.00 0.00 0.00 91 1013.0
20260510171101 10 134 25.7 35.4 0.00 0.00 0.00 92 1012.9
20260510170059 10 135 25.7 43.5 0.00 0.00 0.00 92 1012.8
20260510165054 10 135 24.1 33.8 0.00 0.00 0.00 91 1012.6
20260510164051 10 135 17.7 25.7 0.00 0.00 0.00 92 1012.5
20260510163048 10 152 19.3 25.7 0.00 0.00 0.00 92 1012.4
20260510162044 10 135 19.3 25.7 0.00 0.00 0.00 92 1012.4
20260510161100 10 143 22.5 35.4 0.00 0.00 0.00 93 1012.3
20260510160038 10 169 24.1 35.4 0.00 0.00 0.00 93 1012.1
20260510155032 10 154 22.5 33.8 0.00 0.00 0.00 93 1011.9
20260510154030 10 169 24.1 32.2 0.00 0.00 0.00 93 1011.8
20260510153026 10 143 25.7 35.4 0.00 0.00 0.00 94 1011.5
20260510152023 10 155 24.1 33.8 0.00 0.00 0.00 94 1011.4
20260510151018 10 154 25.7 37.0 0.00 0.00 0.00 94 1011.3
20260510150115 10 164 19.3 24.1 0.00 0.00 0.00 94 1011.3
20260510145111 10 139 19.3 25.7 0.00 0.05 0.00 94 1011.3
20260510144152 11 135 22.5 29.0 0.00 0.05 0.00 93 1011.2
20260510143104 11 139 20.9 27.4 0.00 0.05 0.00 93 1011.1
20260510141057 11 135 22.5 33.8 0.00 0.05 0.00 93 1010.9
20260510140056 11 137 22.5 33.8 0.00 0.05 0.00 93 1010.7
20260510135050 11 139 22.5 27.4 0.00 0.05 0.00 93 1010.7
20260510134047 11 144 24.1 32.2 0.00 0.05 0.00 92 1010.5
20260510133043 11 167 22.5 27.4 0.00 0.05 0.00 92 1010.3
20260510132102 11 175 19.3 25.7 0.00 0.05 0.00 92 1010.2
20260510131036 11 144 16.1 22.5 0.00 0.05 0.00 92 1009.9
20260510130033 12 147 19.3 27.4 0.00 0.05 0.00 91 1009.7
20260510125050 12 168 17.7 24.1 0.00 0.05 0.00 91 1009.8
20260510124025 12 182 19.3 27.4 0.00 0.05 0.00 90 1009.7
20260510123027 12 160 19.3 27.4 0.00 0.05 0.00 90 1009.5
20260510122018 12 176 22.5 33.8 0.00 0.05 0.00 89 1009.4
20260510121115 12 172 20.9 29.0 0.00 0.05 0.00 87 1009.1
20260510120112 12 180 22.5 29.0 0.00 0.05 0.00 83 1008.9
20260510115108 12 176 22.5 29.0 0.00 0.05 0.05 83 1008.9
20260510114107 12 180 29.0 37.0 0.00 0.05 0.05 82 1008.8
20260510113102 12 184 25.7 33.8 0.00 0.05 0.05 81 1008.7
20260510112059 12 180 24.1 32.2 0.00 0.05 0.05 81 1008.6
20260510111057 12 206 29.0 38.6 0.00 0.05 0.05 82 1008.6
20260510110112 12 208 30.6 41.8 0.00 0.05 0.05 85 1008.7
20260510105048 12 194 25.7 33.8 0.00 0.05 0.05 87 1008.7
20260510104105 12 184 27.4 40.2 0.00 0.05 0.05 87 1008.5
20260510103042 12 180 22.5 27.4 0.00 0.05 0.05 86 1008.5
20260510102037 12 196 22.5 33.8 0.00 0.05 0.05 86 1008.5
20260510101034 11 184 25.7 33.8 0.00 0.05 0.05 86 1008.5
20260510100031 11 176 24.1 32.2 0.00 0.05 0.05 87 1008.3
20260510095029 12 184 25.7 35.4 0.00 0.05 0.05 89 1008.2
20260510094104 12 185 29.0 38.6 0.00 0.05 0.05 89 1008.1
20260510093022 12 215 29.0 37.0 0.00 0.05 0.05 92 1008.0
20260510092016 12 207 22.5 41.8 0.00 0.05 0.05 93 1007.9
20260510091114 12 195 22.5 30.6 0.00 0.05 0.05 94 1007.7
20260510090110 12 210 24.1 35.4 0.00 0.05 0.05 92 1007.4
20260510085107 12 208 24.1 37.0 0.00 0.05 0.05 91 1007.3
20260510084102 12 212 22.5 33.8 0.00 0.05 0.05 93 1007.2
20260510083059 12 233 24.1 33.8 0.00 0.05 0.05 92 1007.0
20260510082026 12 229 24.1 33.8 0.00 0.05 0.05 92 1006.8
20260510081044 12 183 25.7 41.8 0.00 0.05 0.05 92 1006.8
20260510080019 12 189 20.9 29.0 0.00 0.05 0.05 93 1006.7
20260510075115 12 192 20.9 29.0 0.00 0.05 0.05 95 1006.6
20260510074111 12 221 22.5 33.8 0.00 0.05 0.05 93 1006.3
20260510073108 12 196 19.3 29.0 0.00 0.05 0.05 92 1006.3
20260510072106 12 202 20.9 27.4 0.00 0.05 0.05 92 1006.3
20260510071101 12 180 17.7 22.5 0.00 0.05 0.05 92 1006.0
20260510070059 12 212 19.3 29.0 0.00 0.05 0.05 92 1005.9
20260510065055 13 203 20.9 30.6 0.00 0.05 0.05 91 1005.8
20260510064112 13 197 19.3 25.7 0.00 0.05 0.05 91 1005.7
20260510063047 13 184 22.5 27.4 0.00 0.05 0.05 90 1005.5
20260510062104 13 188 22.5 30.6 0.00 0.05 0.05 90 1005.3
20260510061040 13 241 14.5 17.7 0.00 0.05 0.05 89 1005.3
20260510060038 13 184 14.5 19.3 0.00 0.05 0.05 87 1005.2
20260510055032 13 211 16.1 22.5 0.00 0.05 0.05 86 1005.1
20260510054030 13 237 17.7 24.1 0.00 0.05 0.05 84 1004.9
20260510053048 13 250 14.5 24.1 0.00 0.05 0.05 83 1004.8
20260510052022 14 210 12.9 17.7 0.00 0.05 0.05 81 1004.6
20260510051020 14 200 14.5 19.3 0.00 0.05 0.05 80 1004.7
20260510050115 15 217 20.9 29.0 0.00 0.05 0.05 79 1004.6
20260510045114 16 218 25.7 37.0 0.00 0.05 0.05 80 1004.7
20260510044150 16 207 19.3 27.4 0.00 0.05 0.05 80 1004.5
20260510043107 16 222 16.1 24.1 0.00 0.05 0.05 81 1004.5
20260510042103 16 210 16.1 24.1 0.00 0.05 0.05 83 1004.6
20260510041059 16 216 19.3 25.7 0.00 0.05 0.05 85 1004.6
20260510040055 15 216 20.9 30.6 0.00 0.05 0.05 84 1004.6
20260510035113 15 224 22.5 35.4 0.00 0.05 0.05 83 1004.5
20260510034047 15 208 20.9 29.0 0.00 0.05 0.05 82 1004.5
20260510033104 15 209 25.7 41.8 0.00 0.05 0.05 80 1004.4
20260510032041 16 205 24.1 41.8 0.00 0.05 0.05 79 1004.3
20260510031059 16 213 22.5 37.0 0.00 0.05 0.05 77 1004.4
20260510030033 16 239 24.1 30.6 0.00 0.05 0.05 77 1004.4
20260510025111 16 230 27.4 38.6 0.00 0.05 0.05 74 1004.4
20260510024028 17 192 29.0 43.5 0.00 0.05 0.05 72 1004.2
20260510023045 17 206 32.2 45.1 0.00 0.05 0.05 73 1004.3
20260510022019 17 216 32.2 43.5 0.00 0.05 0.05 74 1004.2
20260510021017 16 232 30.6 40.2 0.00 0.05 0.05 78 1004.2
20260510020114 17 212 27.4 37.0 0.00 0.05 0.05 76 1004.1
20260510015109 16 203 25.7 37.0 0.00 0.05 0.05 79 1004.1
20260510014106 16 229 30.6 41.8 0.00 0.05 0.05 78 1004.2
20260510013103 16 228 25.7 41.8 0.00 0.05 0.05 78 1004.2
20260510012059 17 203 27.4 37.0 0.00 0.05 0.05 77 1004.1
20260510011054 17 207 25.7 40.2 0.00 0.05 0.05 79 1004.1
20260510010051 16 229 24.1 37.0 0.00 0.05 0.05 81 1004.1
20260510005047 16 207 27.4 37.0 0.00 0.05 0.05 82 1004.2
20260510004046 16 221 27.4 43.5 0.00 0.05 0.05 82 1004.2
20260510003042 16 216 24.1 43.5 0.00 0.05 0.05 81 1004.4
20260510002058 16 217 20.9 32.2 0.00 0.05 0.05 82 1004.2
20260510001033 16 232 19.3 25.7 0.00 0.05 0.05 81 1004.3
20260510000030 16 217 19.3 29.0 0.00 0.05 0.05 81 1004.4
20260509235048 16 205 17.7 25.7 0.00 0.05 0.05 81 1004.6
20260509234046 16 230 19.3 35.4 0.00 0.05 0.05 78 1004.6
20260509233020 16 251 22.5 33.8 0.00 0.05 0.05 77 1004.5
20260509232016 16 212 19.3 29.0 0.00 0.05 0.05 77 1004.5
20260509231113 17 236 20.9 33.8 0.00 0.05 0.05 79 1004.5
20260509230153 17 204 19.3 29.0 0.00 0.05 0.05 82 1004.7
20260509225108 15 226 14.5 24.1 0.00 0.05 0.05 83 1004.8
20260509223100 16 221 20.9 29.0 0.00 0.05 0.05 84 1004.7
20260509222118 16 222 22.5 32.2 0.00 0.10 0.05 90 1004.8
20260509221052 16 230 25.7 38.6 0.00 0.10 0.05 94 1004.7
20260509220048 15 243 20.9 33.8 0.00 0.10 0.05 95 1004.7
20260509215045 15 215 12.9 25.7 0.00 0.13 0.05 97 1004.8
20260509214041 15 213 14.5 20.9 0.00 0.13 0.05 99 1004.7
20260509213038 14 201 16.1 22.5 0.00 0.13 0.05 99 1004.8
20260509212034 14 220 17.7 27.4 0.00 0.13 0.05 99 1004.7
20260509211053 14 217 9.7 12.9 0.00 0.13 0.05 99 1004.7
20260509210027 13 246 11.3 17.7 0.00 0.13 0.05 99 1004.8